Content
SEND FEEDBACK

Daily
Averages
Monthly
Summary
Italy

BELMONTE, ITALY


Home > Europe > Italy
Elevation: 3314 feet     Latitude: 46 01N     Longitude: 009 12E

WEATHER
 
SELECT A DAY
Number of Records: 232,437;   Date Range: 7/1/96 - 9/21/14
 
SHARE

PRINT THIS DATA

[ ← Previous Day ]
WEATHER ALMANAC - JANUARY 31, 2013
[ Next Day → ]
[ °C ]   °F
Weather ElementAverageHighLow
Temperature42.4 °F60.8 °F (12:50 pm)30.2 °F (4:20 am)
Dewpoint29.4 °F36 °F (5:00 am)21.2 °F (12:20 pm)
Humidity63.4 %100 % (2:50 am)22 % (2:50 pm)
Barometer30.11 in30.22 in (11:00 am)30.04 in (4:20 pm)
Wind Speed2.5 mph5.8 mph (3:00 am)
Weather ElementAverage
Visibility5.3 mi
Wind DirectionENE (80.6 °)

Weather ElementTotal
Precipitation---
Heating Degree Days19.5 (Base 65)
Averaged from 63 records on January 31, 2013
WEATHER CONDITIONS BREAKOUT
WIND DIRECTION BREAKOUT
WEATHER BY HOUR - JANUARY 31, 2013
[ °C ]   °F
Local TimeTemperatureDewpointHumidityBarometerVisibilityWind DirectionWind SpeedGust SpeedPrecipitationEventsConditions
12:20 AM35.6 °F33.8 °F93 %30.06 inVariable3.5 mphClear
12:50 AM33.8 °F32.0 °F93 %30.06 inVariable3.5 mphClear
1:20 AM33.8 °F32.0 °F93 %30.06 inNNW (340°)4.6 mphClear
1:50 AM33.8 °F32.0 °F93 %30.09 inVariable2.3 mphClear
2:00 AM39.0 °F33.0 °F73 %30.12 inNW (310°)2.3 mph
2:20 AM32.0 °F30.2 °F93 %30.09 inVariable3.5 mphClear
2:50 AM32.0 °F32.0 °F100 %30.09 inVariable2.3 mphClear
3:00 AM38.0 °F34.0 °F78 %30.13 inNNW (330°)5.8 mph
3:20 AM32.0 °F30.2 °F93 %30.09 in5.6 miVariable3.5 mph
3:50 AM32.0 °F30.2 °F93 %30.12 in5.0 miVariable3.5 mph
4:20 AM30.2 °F30.2 °F100 %30.12 inVariable3.5 mphClear
4:50 AM32.0 °F30.2 °F93 %30.12 inNorth (350°)3.5 mphClear
5:00 AM42.0 °F36.0 °F73 %30.17 inSSE (150°)3.5 mph
5:20 AM32.0 °F30.2 °F93 %30.15 inVariable3.5 mphClear
5:50 AM30.2 °F28.4 °F93 %30.15 in5.6 miVariable1.2 mph
6:00 AM40.0 °F33.0 °F68 %30.19 inNorth5.8 mph
6:20 AM30.2 °F30.2 °F100 %30.15 in5.0 miVariable1.2 mph
6:50 AM30.2 °F28.4 °F93 %30.15 inVariable1.2 mphClear
7:20 AM30.2 °F30.2 °F100 %30.15 inNorth (350°)3.5 mphClear
7:50 AM32.0 °F30.2 °F93 %30.15 inVariable1.2 mphClear
8:00 AM44.0 °F26.0 °F35 %30.19 inSSW (200°)2.3 mph
8:20 AM30.2 °F28.4 °F93 %30.15 inVariable1.2 mphClear
8:50 AM32.0 °F30.2 °F93 %30.18 inSSE (150°)3.5 mphClear
9:00 AM44.0 °F26.0 °F36 %30.21 inSouth (180°)1.2 mph
9:20 AM37.4 °F33.8 °F87 %30.18 inVariable2.3 mphClear
9:50 AM41.0 °F33.8 °F76 %30.18 inVariable2.3 mphClear
10:20 AM46.4 °F30.2 °F53 %30.18 inVariable1.2 mphClear
10:50 AM50.0 °F26.6 °F40 %30.18 inVariable1.2 mphClear
11:00 AM46.0 °F33.0 °F49 %30.22 inENE (60°)1.2 mph
11:20 AM53.6 °F30.2 °F41 %30.18 inVariable1.2 mphClear
11:50 AM53.6 °F24.8 °F33 %30.18 inVariable2.3 mphClear
12:00 PM51.0 °F27.0 °F27 %30.19 inNW (310°)1.2 mph
12:20 PM57.2 °F21.2 °F25 %30.15 inVariable2.3 mphClear
12:50 PM60.8 °F26.6 °F27 %30.12 inVariable2.3 mphClear
1:20 PM59.0 °F21.2 °F23 %30.12 inVariable2.3 mphClear
1:50 PM57.2 °F26.6 °F31 %30.09 inSouth (180°)3.5 mphClear
2:00 PM50.0 °F27.0 °F28 %30.12 inSouth (170°)3.5 mph
2:20 PM57.2 °F24.8 °F29 %30.09 inSouth (180°)5.8 mphClear
2:50 PM60.8 °F21.2 °F22 %30.06 inSouth (170°)4.6 mphClear
3:00 PM49.0 °F35.0 °F46 %30.10 inNorth (10°)1.2 mph
3:20 PM59.0 °F24.8 °F27 %30.06 inSouth (180°)4.6 mphClear
3:50 PM57.2 °F28.4 °F33 %30.06 inSouth (180°)3.5 mphClear
4:20 PM55.4 °F30.2 °F38 %30.04 inVariable2.3 mphClear
4:50 PM55.4 °F28.4 °F36 %30.04 inSouth (180°)4.6 mphClear
5:00 PM49.0 °F30.0 °F36 %30.06 inSW (230°)3.5 mph
5:20 PM50.0 °F28.4 °F43 %30.04 inVariable2.3 mphClear
5:50 PM48.2 °F32.0 °F54 %30.04 inVariable1.2 mphClear
6:00 PM50.0 °F26.0 °F27 %30.07 inSSE (160°)2.3 mph
6:20 PM46.4 °F28.4 °F50 %30.04 inNorth (360°)2.3 mphClear
6:50 PM42.8 °F30.2 °F61 %30.06 inVariable2.3 mphClear
7:20 PM42.8 °F32.0 °F66 %30.04 inVariable1.2 mphClear
7:50 PM41.0 °F30.2 °F65 %30.06 inVariable2.3 mphClear
8:00 PM46.0 °F30.0 °F42 %30.09 inNNW (330°)1.2 mph
8:20 PM39.2 °F30.2 °F70 %30.06 inVariable1.2 mphClear
8:50 PM37.4 °F30.2 °F75 %30.06 inVariable2.3 mphClear
9:00 PM44.0 °F29.0 °F44 %30.09 inNorth1.2 mph
9:20 PM37.4 °F30.2 °F75 %30.06 inVariable2.3 mphClear
9:50 PM35.6 °F28.4 °F75 %30.06 inVariable1.2 mphClear
10:20 PM35.6 °F28.4 °F75 %30.04 inVariable2.3 mphClear
10:50 PM35.6 °F30.2 °F81 %30.04 inVariable2.3 mphClear
11:00 PM42.0 °F29.0 °F49 %30.08 inNNE (20°)1.2 mph
11:20 PM33.8 °F28.4 °F81 %30.04 inVariable2.3 mphClear
11:50 PM33.8 °F30.2 °F87 %30.04 inVariable1.2 mphClear
Hourly data recorded from LSZA, located miles away from Belmonte, Italy







STORIES FROM OUR PARTNERS